Weather reports worldwide

Advertisment
Ramona, ca, United States of America (2074836): temperature & dewpoint: 20.09.2020 04:00:00 - 26.09.2020 04:00:00 (PDT)Ramona, ca, United States of America (2074836): wind speed: 20.09.2020 04:00:00 - 26.09.2020 04:00:00 (PDT)Ramona, ca, United States of America (2074836): wind direction: 20.09.2020 04:00:00 - 26.09.2020 04:00:00 (PDT)Ramona, ca, United States of America (2074836): reduced air pressure: 20.09.2020 04:00:00 - 26.09.2020 04:00:00 (PDT)Ramona, ca, United States of America (2074836): visibility: 20.09.2020 04:00:00 - 26.09.2020 04:00:00 (PDT)
Date & Time tt [°C] td [°C] ff [km/h] ff [kn] dd ppp [hPa] vv [km]
26.09.2020 04:00:00 11,7 11,1 0 0 N 1013,3 0,4
26.09.2020 03:00:00 10,6 10,0 0 0 N 1013,6 1,2
26.09.2020 02:00:00 10,6 9,4 0 0 N 1013,8 15
26.09.2020 01:00:00 11,7 9,4 0 0 N 1013,8 16
26.09.2020 00:00:00 12,2 10,6 0 0 N 1013,8 16
25.09.2020 23:00:00 13,9 11,7 0 0 N 1013,8 16
25.09.2020 22:00:00 14,4 12,2 0 0 N 1013,7 16
25.09.2020 21:00:00 15,0 13,9 0 0 N 1013,7 16
25.09.2020 20:00:00 16,7 14,4 9 5 W 1013,5 10
25.09.2020 19:00:00 18,9 15,0 8 4 W 1013,5 10
25.09.2020 18:00:00 23,9 15,6 16 9 W 1012,8 16
25.09.2020 17:00:00 26,7 14,4 18 10 W 1012,4 16
25.09.2020 16:00:00 27,8 13,9 13 7 WNW 1012,3 16
25.09.2020 15:00:00 28,9 13,3 18 10 W 1012,4 16
25.09.2020 14:00:00 30,0 13,9 16 9 W 1012,7 16
25.09.2020 13:00:00 30,0 11,7 16 9 WNW 1013,1 16
25.09.2020 12:00:00 28,3 11,7 16 9 WNW 1013,7 16
25.09.2020 11:00:00 27,8 8,3 16 9 WNW 1013,5 16
25.09.2020 10:00:00 27,2 5,6 5 3 - 1013,5 16
25.09.2020 09:00:00 21,7 7,2 0 0 N 1013,4 16
25.09.2020 08:00:00 13,9 8,9 0 0 N 1013,4 16
25.09.2020 07:00:00 8,9 7,2 0 0 N 1013,3 16
25.09.2020 06:00:00 9,4 7,8 0 0 N 1012,5 16
25.09.2020 05:00:00 9,4 7,2 0 0 N 1012,1 16
25.09.2020 04:00:00 11,1 8,9 0 0 N 1011,8 16
25.09.2020 03:00:00 10,6 8,9 0 0 N 1011,7 16
25.09.2020 02:00:00 12,2 9,4 0 0 N 1011,6 16
25.09.2020 01:00:00 12,8 9,4 0 0 N 1011,6 16
25.09.2020 00:00:00 13,3 10,0 0 0 N 1011,6 16
24.09.2020 23:00:00 14,4 10,6 0 0 N 1011,9 16
24.09.2020 22:00:00 16,1 11,1 0 0 N 1012,1 16
24.09.2020 21:00:00 17,2 11,1 0 0 N 1011,9 16
24.09.2020 20:00:00 18,9 12,2 0 0 N 1011,8 16
24.09.2020 19:00:00 21,1 13,3 8 4 WNW 1011,6 16
24.09.2020 18:00:00 27,2 13,3 13 7 W 1011,2 16
24.09.2020 17:00:00 29,4 12,8 15 8 W 1011,0 16
24.09.2020 16:00:00 31,1 12,2 18 10 W 1011,3 16
24.09.2020 15:00:00 32,8 10,0 16 9 WNW 1011,5 16
24.09.2020 14:00:00 32,8 12,8 15 8 W 1011,9 16
24.09.2020 13:00:00 32,8 6,1 13 7 WNW 1012,4 16
24.09.2020 12:00:00 32,2 8,9 16 9 W 1012,9 16
24.09.2020 11:00:00 30,6 8,9 8 4 - 1013,5 16
24.09.2020 10:00:00 28,3 9,4 0 0 N 1013,9 16
24.09.2020 09:00:00 24,4 8,9 5 3 E 1013,8 16
24.09.2020 08:00:00 16,7 8,9 0 0 N 1013,8 16
24.09.2020 07:00:00 11,7 7,8 0 0 N 1013,6 16
24.09.2020 06:00:00 11,7 8,3 0 0 N 1013,0 16
24.09.2020 05:00:00 12,2 8,3 0 0 N 1012,9 16
24.09.2020 04:00:00 12,2 8,3 0 0 N 1013,0 16
24.09.2020 03:00:00 13,3 8,9 0 0 N 1013,0 16
24.09.2020 02:00:00 13,9 8,9 0 0 N 1013,1 16
24.09.2020 01:00:00 15,0 9,4 0 0 N 1013,1 16
24.09.2020 00:00:00 15,0 9,4 0 0 N 1013,7 16
23.09.2020 23:00:00 16,1 9,4 0 0 N 1014,1 16
23.09.2020 22:00:00 17,2 9,4 0 0 N 1014,3 16
23.09.2020 21:00:00 19,4 10,6 5 3 NE 1014,6 16
23.09.2020 20:00:00 19,4 11,1 0 0 N 1014,8 16
23.09.2020 19:00:00 21,7 11,7 9 5 WNW 1014,8 16
23.09.2020 18:00:00 27,2 11,1 13 7 W 1014,5 16
23.09.2020 17:00:00 30,0 10,6 16 9 WNW 1014,3 16
23.09.2020 16:00:00 31,7 7,2 16 9 W 1014,4 16
23.09.2020 15:00:00 32,2 8,3 18 10 W 1014,5 16
23.09.2020 14:00:00 32,8 9,4 21 11 WNW 1014,7 16
23.09.2020 13:00:00 32,8 8,9 16 9 W 1015,3 16
23.09.2020 12:00:00 31,7 11,7 18 10 WNW 1015,9 16
23.09.2020 11:00:00 30,0 8,3 5 3 - 1016,0 16
23.09.2020 10:00:00 27,8 8,9 5 3 - 1016,5 16
23.09.2020 09:00:00 22,8 7,8 0 0 N 1016,7 16
23.09.2020 08:00:00 15,6 9,4 0 0 N 1017,2 16
23.09.2020 07:00:00 11,1 8,3 0 0 N 1016,9 16
23.09.2020 06:00:00 10,6 8,3 0 0 N 1016,4 16
23.09.2020 05:00:00 11,1 7,8 0 0 N 1015,8 16
23.09.2020 04:00:00 10,6 8,3 0 0 N 1015,5 16
23.09.2020 03:00:00 12,2 9,4 0 0 N 1015,4 16
23.09.2020 02:00:00 12,8 10,6 0 0 N 1015,7 16
23.09.2020 01:00:00 13,3 10,0 0 0 N 1015,8 16
23.09.2020 00:00:00 15,0 10,6 0 0 N 1016,0 16
22.09.2020 23:00:00 15,0 11,7 5 3 NE 1016,1 16
22.09.2020 22:00:00 16,7 12,2 0 0 N 1016,0 16
22.09.2020 21:00:00 17,2 11,7 0 0 N 1015,9 16
22.09.2020 20:00:00 18,3 12,2 5 3 WSW 1015,7 16
22.09.2020 19:00:00 21,1 12,8 8 4 W 1015,3 16
22.09.2020 18:00:00 26,1 11,7 13 7 W 1014,8 16
22.09.2020 17:00:00 28,9 11,7 13 7 W 1014,4 16
22.09.2020 16:00:00 30,6 10,6 18 10 W 1014,4 16
22.09.2020 15:00:00 32,2 10,6 21 11 W 1014,3 16
22.09.2020 14:00:00 33,3 10,0 18 10 W 1014,5 16
22.09.2020 13:00:00 31,7 11,1 13 7 NW 1015,2 16
22.09.2020 12:00:00 30,0 11,7 15 8 WNW 1015,6 16
22.09.2020 11:00:00 30,0 10,6 24 13 NW 1015,7 16
22.09.2020 10:00:00 29,4 5,6 0 0 N 1015,6 16
22.09.2020 09:00:00 24,4 10,0 0 0 N 1015,4 16
22.09.2020 08:00:00 16,7 12,2 0 0 N 1016,0 16
22.09.2020 07:00:00 11,7 10,0 0 0 N 1015,8 16
22.09.2020 06:00:00 11,7 10,0 0 0 N 1015,1 16
22.09.2020 05:00:00 11,7 9,4 0 0 N 1014,7 16
22.09.2020 04:00:00 12,2 10,6 0 0 N 1014,5 16
22.09.2020 03:00:00 12,8 10,6 0 0 N 1014,4 16
22.09.2020 02:00:00 13,3 11,7 0 0 N 1014,1 16
22.09.2020 01:00:00 14,4 12,8 0 0 N 1014,0 16
22.09.2020 00:00:00 15,0 12,8 0 0 N 1014,4 16
21.09.2020 23:00:00 13,9 12,2 0 0 N 1014,4 16
21.09.2020 22:00:00 16,1 12,8 0 0 N 1013,8 16
21.09.2020 21:00:00 17,2 13,3 0 0 N 1013,6 16
21.09.2020 20:00:00 17,8 13,9 5 3 W 1013,4 16
21.09.2020 19:00:00 20,0 14,4 8 4 W 1013,2 16
21.09.2020 18:00:00 25,0 15,0 16 9 WNW 1012,4 16
21.09.2020 17:00:00 28,3 15,0 15 8 WNW 1011,8 16
21.09.2020 16:00:00 30,0 15,0 18 10 NW 1011,6 16
21.09.2020 15:00:00 31,1 16,1 16 9 WNW 1011,8 16
21.09.2020 14:00:00 31,7 15,0 15 8 NW 1012,1 16
21.09.2020 13:00:00 30,6 15,0 15 8 WNW 1012,8 16
21.09.2020 12:00:00 27,8 15,0 18 10 WNW 1013,5 16
21.09.2020 11:00:00 27,8 14,4 16 9 WNW 1013,6 16
21.09.2020 10:00:00 26,7 12,2 5 3 - 1013,8 16
21.09.2020 09:00:00 21,7 13,3 0 0 N 1013,9 16
21.09.2020 08:00:00 16,1 12,8 0 0 N 1014,0 16
21.09.2020 07:00:00 10,0 8,9 0 0 N 1013,4 10
21.09.2020 06:00:00 12,2 10,6 0 0 N 1012,3 16
21.09.2020 05:00:00 12,2 11,1 0 0 N 1011,8 15
21.09.2020 04:00:00 12,8 11,7 0 0 N 1011,5 13
21.09.2020 03:00:00 13,3 11,7 0 0 N 1011,3 16
21.09.2020 02:00:00 13,9 11,7 0 0 N 1011,6 16
21.09.2020 01:00:00 14,4 12,8 0 0 N 1011,5 16
21.09.2020 00:00:00 15,0 11,7 0 0 N 1011,7 16
20.09.2020 23:00:00 15,0 13,3 0 0 N 1011,9 16
20.09.2020 22:00:00 16,1 14,4 0 0 N 1012,0 16
20.09.2020 21:00:00 16,7 13,3 8 4 W 1011,8 16
20.09.2020 20:00:00 17,8 13,9 9 5 WNW 1011,6 16
20.09.2020 19:00:00 21,1 13,9 9 5 W 1011,3 16
20.09.2020 18:00:00 27,2 13,3 13 7 WNW 1010,8 16
20.09.2020 17:00:00 29,4 12,2 11 6 WNW 1010,5 16
20.09.2020 16:00:00 30,0 12,8 13 7 W 1010,6 16
20.09.2020 15:00:00 30,6 14,4 18 10 W 1010,7 16
20.09.2020 14:00:00 30,0 15,6 18 10 W 1011,0 16
20.09.2020 13:00:00 31,1 14,4 24 13 W 1011,2 16
20.09.2020 12:00:00 30,0 14,4 15 8 W 1011,3 16
20.09.2020 11:00:00 29,4 13,3 15 8 NW 1011,5 16
20.09.2020 10:00:00 26,1 12,8 16 9 WNW 1011,8 16
20.09.2020 09:00:00 25,0 9,4 0 0 N 1011,4 16
20.09.2020 08:00:00 17,8 8,9 0 0 N 1011,2 16
20.09.2020 07:00:00 12,8 7,2 5 3 E 1011,3 16
20.09.2020 06:00:00 12,8 7,2 0 0 N 1011,0 16
20.09.2020 05:00:00 13,9 7,2 0 0 N 1010,8 16
20.09.2020 04:00:00 12,8 7,2 0 0 N 1010,4 16

tt = temperature
td = dewpoint
ff = wind speed
dd = wind direction
ppp = reduced air pressure
vv = visibility

Next stations